OpenBCM V1.07b12 (Linux)

Packet Radio Mailbox

DB0FHN

[JN59NK Nuernberg]

 Login: GUEST





  
CX2SA  > KEPS     24.09.04 03:25l 151 Lines 3944 Bytes #999 (0) @ AMSAT
BID : ORB04267.O
Read: GUEST
Subj: Orbital Elements  04267.OSCAR
Path: DB0FHN<DB0THA<DB0ERF<DB0FBB<DB0ACC<DB0EA<DB0RES<ON0AR<7M3TJZ<EA5AKC<
      CX2SA
Sent: 040924/0219Z @:CX2SA.LAV.URY.SA #:18028 [Minas] FBB7.00e $:ORB04267.O
From: CX2SA@CX2SA.LAV.URY.SA
To  : KEPS@AMSAT


HR AMSAT ORBITAL ELEMENTS FOR OSCAR SATELLITES
FROM WA5QGD FORT WORTH,TX September 23, 2004
SEND SUBSCRIBE/UNSUBSCRIBE TO majordomo@amsat.org ONLY
BID: ORB04267.O
TO ALL RADIO AMATEURS BT

Satellite: AO-07
Catalog number: 07530
Epoch time:      04266.96005471
Element set:    0327
Inclination:      101.6730 deg
RA of node:       312.1337 deg
Eccentricity:    0.0012181
Arg of perigee:   033.2970 deg
Mean anomaly:     326.8867 deg
Mean motion:   12.53568945 rev/day
Decay rate:       -2.9e-07 rev/day^2
Epoch rev:           36616
Checksum:              292

Satellite: AO-10
Catalog number: 14129
Epoch time:      04266.74235922
Element set:     105
Inclination:       26.6456 deg
RA of node:        70.3253 deg
Eccentricity:    0.6030191
Arg of perigee:   126.2600 deg
Mean anomaly:     305.7601 deg
Mean motion:    2.05867470 rev/day
Decay rate:       -2.3e-07 rev/day^2
Epoch rev:           16002
Checksum:              249

Satellite: UO-11
Catalog number: 14781
Epoch time:      04267.67761643
Element set:     588
Inclination:       98.1843 deg
RA of node:       254.1888 deg
Eccentricity:    0.0010356
Arg of perigee:   131.7827 deg
Mean anomaly:     228.4252 deg
Mean motion:   14.79004528 rev/day
Decay rate:       5.96e-06 rev/day^2
Epoch rev:           10240
Checksum:              318

Satellite: RS-10/11
Catalog number: 18129
Epoch time:      04266.96468633
Element set:    0506
Inclination:      082.9198 deg
RA of node:       075.7954 deg
Eccentricity:    0.0013425
Arg of perigee:   051.4084 deg
Mean anomaly:     308.8270 deg
Mean motion:   13.72744628 rev/day
Decay rate:        3.4e-07 rev/day^2
Epoch rev:           86441
Checksum:              322

Satellite: FO-20
Catalog number: 20480
Epoch time:      04266.67456674
Element set:     713
Inclination:       99.0351 deg
RA of node:       125.7164 deg
Eccentricity:    0.0540817
Arg of perigee:   125.9683 deg
Mean anomaly:     239.2829 deg
Mean motion:   12.83341770 rev/day
Decay rate:       -3.1e-07 rev/day^2
Epoch rev:           68518
Checksum:              317

Satellite: RS-12/13
Catalog number: 21089
Epoch time:      04267.65761361
Element set:     735
Inclination:       82.9180 deg
RA of node:       108.6995 deg
Eccentricity:    0.0030648
Arg of perigee:   100.3828 deg
Mean anomaly:     260.0783 deg
Mean motion:   13.74441171 rev/day
Decay rate:        3.1e-07 rev/day^2
Epoch rev:           68388
Checksum:              312

Satellite: RS-15
Catalog number: 23439
Epoch time:      04266.91038497
Element set:    0824
Inclination:      064.8162 deg
RA of node:       179.7935 deg
Eccentricity:    0.0155759
Arg of perigee:   003.7260 deg
Mean anomaly:     356.4786 deg
Mean motion:   11.27549850 rev/day
Decay rate:       -3.9e-07 rev/day^2
Epoch rev:           40125
Checksum:              335

Satellite: FO-29
Catalog number: 24278
Epoch time:      04266.79112830
Element set:     801
Inclination:       98.5828 deg
RA of node:       345.9668 deg
Eccentricity:    0.0350964
Arg of perigee:   148.7919 deg
Mean anomaly:     213.4590 deg
Mean motion:   13.52903459 rev/day
Decay rate:       -2.0e-07 rev/day^2
Epoch rev:           40003
Checksum:              325

Satellite: SO-33
Catalog number: 25509
Epoch time:      04266.84312798
Element set:     201
Inclination:       31.4304 deg
RA of node:       103.5952 deg
Eccentricity:    0.0356786
Arg of perigee:   349.5052 deg
Mean anomaly:       9.8279 deg
Mean motion:   14.27866699 rev/day
Decay rate:       2.66e-06 rev/day^2
Epoch rev:           30858
Checksum:              334

Satellite: AO-40
Catalog number: 26609
Epoch time:      04259.42580772
Element set:     435
Inclination:        9.7703 deg
RA of node:       343.0238 deg
Eccentricity:    0.7966699
Arg of perigee:   320.3876 deg
Mean anomaly:       3.3706 deg
Mean motion:    1.25585724 rev/day
Decay rate:      -1.10e-06 rev/day^2
Epoch rev:            1780
Checksum:              311



Read previous mail | Read next mail


 21.12.2025 18:29:11lGo back Go up